Location: *
(53.2159°S, 174.4347°W)
Time: 03:32:29
(UTC+00:00)

Daily predictions for brighter satellites

Satellite Brightness Start Highest point End
(mag) Time Altitude Azimuth Time Altitude Azimuth Time Altitude Azimuth
CZ-4B R/B 3.5 04:06:44 10° NNW 04:09:59 33° W 04:13:16 10° SSW
Cosmos 1980 Rocket 3.3 04:04:43 10° WNW 04:10:02 38° SW 04:15:22 10° SSE
CZ-4B R/B 3.7 04:09:14 10° SSE 04:13:18 37° E 04:17:27 10° NNE
Cosmos 1328 Rocket 4.0 04:09:49 10° SSW 04:14:14 69° W 04:18:38 10° N
STARLINK-1291 4.4 04:12:16 10° NNW 04:15:19 31° NNE 04:18:22 10° E
STARLINK-1317 4.4 04:12:28 10° NW 04:15:46 34° NNE 04:19:05 10° E
CZ-2C R/B 4.4 04:14:50 10° ESE 04:16:18 11° SE 04:17:46 10° SSE
STARLINK-1264 4.4 04:14:08 10° NW 04:17:12 31° NNE 04:20:17 10° E
ADEOS II 4.4 04:13:48 10° S 04:17:16 18° SW 04:20:44 10° W
STARLINK-33 3.9 04:15:31 10° NW 04:18:37 41° NNE 04:21:46 10° E
STARLINK-1267 4.3 04:16:00 10° NW 04:19:06 32° NNE 04:22:14 10° E
SKYMED 2 3.7 04:15:03 10° NNE 04:19:22 59° ESE 04:23:45 10° S
Cosmos 1606 3.7 04:16:10 10° SSW 04:20:04 53° W 04:23:56 10° N
STARLINK-1272 4.3 04:17:51 10° NW 04:20:59 33° NNE 04:24:08 10° E
Cosmos 1844 3.9 04:15:39 10° SSW 04:21:19 82° WNW 04:26:55 10° NNE
STARLINK-1207 4.3 04:19:44 10° NW 04:22:53 34° NNE 04:26:03 10° E
ALOS 2.6 04:19:18 10° SSE 04:23:55 47° E 04:28:28 10° N
H-2A R/B 3.2 04:20:24 10° SSE 04:24:17 33° E 04:28:01 10° NNE
Cosmos 1340 3.4 04:21:17 10° NNE 04:24:46 34° E 04:28:18 10° SSE
STARLINK-1266 4.2 04:21:39 10° NW 04:24:49 35° NNE 04:28:01 10° E
Cosmos 2219 Rocket 3.2 04:21:18 10° NNE 04:26:03 28° ENE 04:30:52 10° SE
STARLINK-1284 4.2 04:23:36 10° NW 04:26:48 36° NNE 04:30:00 10° E
Iridium 4 Rocket 3.5 04:21:42 10° N 04:27:03 71° E 04:31:59 10° S
STARLINK-66 3.7 04:24:08 10° NW 04:27:17 46° NNE 04:30:28 10° E
Okean 3 Rocket 4.3 04:23:08 10° NNW 04:27:31 56° WSW 04:31:56 10° S
STARLINK-1258 4.1 04:25:30 10° NW 04:28:41 37° NNE 04:31:55 10° E
CZ-4B R/B 3.9 04:24:35 10° SSE 04:28:44 66° ENE 04:32:37 10° N
Meteor 2-6 Rocket 4.3 04:23:33 10° S 04:28:57 52° ESE 04:34:21 10° NNE
SeaSat 1 4.4 04:28:17 10° SE 04:30:21 13° SSE 04:32:24 10° S
STARLINK-1292 4.1 04:27:26 10° NW 04:30:40 37° NNE 04:33:49 10° E
STARLINK-52 3.7 04:27:49 10° W 04:31:03 55° NNW 04:34:16 10° ENE
Cosmos 2151 4.3 04:28:05 10° NW 04:32:10 41° WSW 04:36:17 10° S
STARLINK-1338 3.3 04:28:39 10° W 04:32:20 84° N 04:36:01 10° E
STARLINK-1274 4.1 04:29:26 10° NW 04:32:39 38° NNE 04:35:45 11° E
CZ-4C R/B 3.4 04:26:29 10° W 04:33:32 43° SSW 04:39:27 10° SE
Cosmos 1782 2.8 04:30:15 10° S 04:34:20 79° ESE 04:38:23 10° NNE
STARLINK-1289 4.0 04:31:26 10° NW 04:34:41 39° NNE 04:37:43 11° E
FALCON 9 DEB 3.6 04:31:27 10° W 04:35:00 66° NNW 04:38:31 10° ENE
STARLINK-1303 4.0 04:33:23 10° NW 04:36:39 40° NNE 04:39:37 12° E
IDEFIX/ARIANE 42P 4.4 04:33:09 10° S 04:37:34 28° WSW 04:41:58 10° WNW
STARLINK-1371 3.3 04:34:02 10° W 04:37:44 83° N 04:41:25 10° E
Cosmos 1500 Rocket 3.7 04:33:37 10° N 04:37:56 56° E 04:42:17 10° SSE
STARLINK-75 3.6 04:35:12 10° NW 04:38:22 48° NNE 04:41:08 13° E
STARLINK-1312 4.0 04:35:21 10° NW 04:38:37 41° NNE 04:41:32 13° E
SL-4 R/B 3.7 04:36:48 10° W 04:40:01 29° NNW 04:43:24 10° NNE
STARLINK-1341 3.4 04:36:42 10° W 04:40:25 82° N 04:44:07 10° ENE
Cosmos 1862 4.3 04:37:03 10° NNE 04:40:29 27° E 04:43:59 10° SSE
Cosmos 2322 Rocket 2.6 04:36:30 10° NW 04:42:12 64° SW 04:47:59 10° SSE
STARLINK-1374 3.4 04:39:18 10° W 04:43:00 81° N 04:46:42 10° ENE
Cosmos 2237 4.3 04:37:17 10° NNW 04:43:01 84° ENE 04:48:49 10° SSE
STARLINK-58 4.0 04:42:14 10° NW 04:45:15 35° NNE 04:47:38 14° E
Cosmos 1408 Rocket 4.0 04:41:01 10° NNW 04:45:31 68° WSW 04:50:06 10° S
STARLINK-1339 3.4 04:41:58 10° W 04:45:42 81° N 04:49:19 11° ENE
STARLINK-22 3.6 04:44:49 10° NW 04:48:00 47° NNE 04:50:24 16° E
Cosmos 1238 Rocket 4.5 04:45:42 10° ENE 04:48:01 15° E 04:48:23 14° E
STARLINK-1377 3.4 04:44:19 10° W 04:48:01 80° N 04:51:30 11° ENE
Cosmos 1805 Rocket 4.1 04:44:15 10° NNE 04:48:19 37° E 04:52:28 10° SSE
Cosmos 2123 Rocket 4.0 04:42:10 10° S 04:48:29 81° E 04:54:45 10° NNE
Meteor 1-27 Rocket 4.1 04:44:52 10° S 04:50:33 45° ESE 04:56:15 10° NE
STARLINK-1353 3.4 04:47:00 10° W 04:50:42 79° N 04:54:05 12° ENE
STARLINK 1040 2.5 04:48:25 10° WNW 04:51:06 77° N 04:52:48 20° E
Cosmos 1812 3.1 04:48:00 10° S 04:51:46 40° ESE 04:55:28 10° NE
STARLINK-1320 3.1 04:48:56 10° W 04:52:09 72° NNW 04:54:59 13° ENE
STARLINK-1322 3.1 04:49:15 10° W 04:52:28 71° NNW 04:55:18 13° ENE
ADEOS 4.4 04:47:34 10° S 04:52:43 52° WSW 04:57:49 10° NW
STARLINK-1324 3.1 04:49:37 10° W 04:52:49 71° NNW 04:55:38 13° ENE
USA 234 3.4 04:47:01 13° ESE 04:53:05 69° NNE 04:59:41 10° NW
STARLINK-1294 3.1 04:49:58 10° W 04:53:08 71° NNW 04:55:55 13° ENE
STARLINK-1261 3.1 04:50:16 10° W 04:53:29 71° NNW 04:56:17 13° ENE
STARLINK-80 3.8 04:49:49 10° WNW 04:53:36 55° NNE 04:56:25 17° E
STARLINK-1375 3.4 04:50:01 10° W 04:53:44 78° NNW 04:57:03 13° ENE
STARLINK-43 3.4 04:50:02 10° WNW 04:53:48 82° N 04:56:34 17° E
STARLINK-1325 3.1 04:50:36 10° W 04:53:48 71° NNW 04:56:35 13° ENE
STARLINK-1333 3.1 04:50:59 10° W 04:54:11 71° NNW 04:56:57 13° ENE
Cosmos 1461 2.7 04:50:08 10° SW 04:54:12 66° SE 04:58:07 10° NE
STARLINK-1334 3.1 04:51:18 10° W 04:54:30 70° NNW 04:57:16 13° ENE
STARLINK-1326 3.1 04:51:39 10° W 04:54:51 70° NNW 04:57:35 13° ENE
STARLINK-1323 3.1 04:51:57 10° W 04:55:10 70° NNW 04:57:54 13° ENE
COSMOS 2455 4.2 04:50:39 10° SW 04:55:25 23° S 04:58:54 15° SE
STARLINK-1349 3.1 04:52:20 10° W 04:55:33 70° NNW 04:58:15 13° ENE
STARLINK-1336 3.1 04:52:39 10° W 04:55:51 70° NNW 04:58:33 14° ENE
Cosmos 1538 Rocket 4.0 04:50:38 10° NNW 04:55:52 82° ENE 05:01:09 10° SSE
STARLINK-1350 3.4 04:52:24 10° W 04:56:06 76° NNW 04:59:17 13° ENE
STARLINK-1331 3.1 04:53:02 10° W 04:56:14 70° NNW 04:58:55 14° ENE
STARLINK-1344 3.1 04:53:22 10° W 04:56:35 69° NNW 04:59:15 14° ENE
COSMOS 2428 3.2 04:51:16 10° N 04:56:37 41° ENE 05:01:20 13° SE
STARLINK-1343 3.1 04:53:39 10° W 04:56:51 69° NNW 04:59:31 14° ENE
STARLINK-1346 3.1 04:54:05 10° W 04:57:14 69° NNW 04:59:51 14° ENE
STARLINK-1328 3.2 04:54:20 10° W 04:57:32 69° NNW 05:00:11 14° ENE
STARLINK-1354 3.2 04:54:39 10° W 04:57:52 69° NNW 05:00:30 14° ENE
STARLINK-1347 3.2 04:55:01 10° W 04:58:14 68° NNW 05:00:51 14° ENE
STARLINK-1357 3.2 04:55:22 10° W 04:58:33 68° NNW 05:01:10 14° ENE
STARLINK-1352 3.4 04:55:08 10° W 04:58:49 75° NNW 05:01:54 14° ENE
STARLINK-1335 3.2 04:55:45 10° W 04:58:57 68° NNW 05:01:32 15° ENE
STARLINK-1327 3.2 04:56:01 10° W 04:59:13 68° NNW 05:01:48 15° ENE
STARLINK-1340 3.2 04:56:22 10° W 04:59:34 68° NNW 05:02:08 15° ENE
STARLINK-1356 3.2 04:56:43 10° W 04:59:54 68° NNW 05:02:27 15° ENE
ADEOS Rocket 4.0 04:52:21 10° N 05:00:03 73° WNW 05:07:57 10° SSW
STARLINK-1345 3.2 04:57:02 10° W 05:00:14 67° NNW 05:02:47 15° ENE
Meteor 1-31 Rocket 3.4 04:56:21 10° S 05:00:21 60° WSW 05:04:17 10° NNW
STARLINK-1355 3.2 04:57:22 10° W 05:00:34 67° NNW 05:03:06 15° ENE
STARLINK-1321 3.2 04:57:44 10° W 05:00:56 67° NNW 05:03:27 15° ENE
STARLINK-1358 3.2 04:58:04 10° W 05:01:15 67° NNW 05:03:45 15° ENE
Cosmos 1624 Rocket 4.1 04:56:21 10° SSW 05:01:34 56° ESE 05:06:45 10° NE
STARLINK-1368 3.4 04:57:52 10° W 05:01:34 74° NNW 05:04:33 15° ENE
STARLINK-1332 3.2 04:58:27 10° W 05:01:39 67° NNW 05:04:08 15° ENE
STARLINK-1348 3.2 04:58:45 10° W 05:01:57 66° NNW 05:04:25 16° ENE
STARLINK-1330 3.2 04:59:04 10° W 05:02:16 66° NNW 05:04:43 16° ENE
ATLAS 5 CENTAUR R/B 4.0 04:57:37 10° NNE 05:02:21 19° ENE 05:04:51 16° E
STARLINK-1283 3.7 04:58:34 10° WNW 05:02:23 61° NNE 05:04:52 20° E
STARLINK-1363 3.2 04:59:28 10° W 05:02:40 66° NNW 05:05:07 16° ENE
STARLINK-1337 3.2 04:59:45 10° W 05:02:57 66° NNW 05:05:23 16° ENE
STARLINK-1342 3.2 05:00:05 10° W 05:03:17 66° NNW 05:05:43 16° ENE
STARLINK-1364 3.2 05:00:24 10° W 05:03:36 66° NNW 05:06:01 16° ENE
STARLINK-1311 3.2 05:00:37 10° WNW 05:03:36 54° NNE 05:05:12 24° E
Cosmos 1535 Rocket 4.4 04:57:34 10° N 05:03:47 75° E 05:10:01 10° SSE
STARLINK-1376 3.2 05:00:47 10° W 05:03:58 65° NNW 05:06:22 16° ENE
STARLINK-1360 3.2 05:01:06 10° W 05:04:17 65° NNW 05:06:40 16° ENE
STARLINK-1369 3.5 05:00:39 10° W 05:04:20 73° NNW 05:07:13 16° ENE
STARLINK-1361 3.2 05:01:25 10° W 05:04:37 65° NNW 05:06:59 16° ENE
STARLINK-1367 3.2 05:01:48 10° W 05:04:57 64° NNW 05:07:16 17° ENE
CZ-4B R/B 3.8 05:00:05 10° SSE 05:05:02 34° E 05:10:02 10° NNE
STARLINK-1366 3.2 05:02:10 10° W 05:05:21 65° NNW 05:07:42 17° ENE
Cosmos 1943 Rocket 3.5 05:01:16 10° SSW 05:05:29 21° SSE 05:07:26 18° ESE
Cosmos 371 Rocket 4.2 05:02:04 10° S 05:06:17 28° SE 05:08:53 18° E
Cosmos 2369 Rocket 3.7 05:02:41 10° SSW 05:06:47 19° SSE 05:08:42 17° SE
Cosmos 1707 Rocket 3.6 05:02:35 10° S 05:07:04 56° ESE 05:11:26 10° NNE
STARLINK-1372 3.5 05:03:25 10° W 05:07:07 71° NNW 05:09:54 17° ENE
Iridium 96 3.1 05:06:09 16° SSW 05:07:26 62° W 05:09:10 10° N
COSMO-SKYMED 1 3.5 05:03:09 10° N 05:07:27 53° W 05:11:49 10° SSW
Cosmos 1821 Rocket 4.3 05:02:03 10° NNW 05:08:11 69° WSW 05:14:29 10° S
Cosmos 2237 Rocket 3.3 05:04:53 10° NNE 05:09:14 23° ENE 05:11:03 20° ESE
STARLINK-42 3.1 05:06:22 10° WNW 05:09:37 67° NNE 05:11:15 27° E
STARLINK-1316 3.2 05:06:34 10° WNW 05:09:44 56° NNE 05:11:15 27° E
STARLINK-1378 3.5 05:06:28 10° W 05:10:11 70° NNW 05:12:53 17° ENE
STARLINK-1257 3.2 05:07:31 10° WNW 05:10:39 57° NNE 05:12:08 27° E
Meteor 2-20 Rocket 4.4 05:04:40 10° S 05:10:58 80° ESE 05:17:12 10° NNE
STARLINK-1256 3.2 05:08:23 10° WNW 05:11:33 57° NNE 05:13:00 28° E
SL-16 R/B 3.3 05:06:17 10° WNW 05:11:39 40° SW 05:17:03 10° SSE
Cosmos 2228 Rocket 4.0 05:07:26 10° SSW 05:11:57 54° W 05:16:23 10° N
Cosmos 1633 2.9 05:08:35 10° NNW 05:12:14 68° WSW 05:15:55 10° S
STARLINK-1329 3.5 05:08:45 10° W 05:12:27 69° NNW 05:15:02 18° ENE
STARLINK-1213 3.2 05:09:18 10° WNW 05:12:27 58° NNE 05:13:52 28° E
STARLINK-1379 3.5 05:09:01 10° W 05:12:42 69° NNW 05:15:17 18° ENE
STARLINK-1263 3.2 05:10:11 10° WNW 05:13:21 58° NNE 05:14:44 29° E
STARLINK-1259 3.2 05:11:05 10° WNW 05:14:14 59° NNE 05:15:35 30° E
STARLINK-1265 3.2 05:11:37 10° WNW 05:14:45 58° NNE 05:16:03 30° E
STARLINK-1285 3.2 05:11:58 10° WNW 05:15:08 59° NNE 05:16:27 30° E
STARLINK-1362 3.6 05:11:55 10° W 05:15:40 68° NNW 05:18:11 19° ENE
STARLINK-1268 3.2 05:12:36 10° WNW 05:15:45 59° NNE 05:17:02 31° E
STARLINK-1365 3.6 05:12:09 10° W 05:15:53 67° NNW 05:18:25 19° ENE
Cosmos 1371 Rocket 4.0 05:11:10 10° SSW 05:16:40 78° ESE 05:22:04 10° NNE
STARLINK-1296 3.1 05:13:48 10° WNW 05:16:58 60° NNE 05:18:13 32° E
ATLAS CENTAUR R/B 2.9 05:13:06 10° SW 05:17:00 26° SSE 05:18:35 22° SE
STARLINK-1260 3.1 05:14:41 10° WNW 05:17:51 61° NNE 05:19:04 33° E
STARLINK-1373 3.6 05:14:43 10° W 05:18:26 66° NNW 05:20:50 20° ENE
STARLINK-1318 3.1 05:15:37 10° WNW 05:18:46 61° NNE 05:19:57 33° E
STARLINK-1275 3.1 05:16:27 10° WNW 05:19:37 62° NNE 05:20:46 34° E
STARLINK-1309 3.1 05:17:21 10° WNW 05:20:32 62° NNE 05:21:39 35° E
Cosmos 1862 Rocket 4.0 05:16:37 10° S 05:20:59 41° ESE 05:25:18 10° NE
STARLINK-1390 3.6 05:17:24 10° W 05:21:06 65° NNW 05:23:23 21° ENE
NOSS 3-4 (A) 4.1 05:13:57 10° SW 05:21:19 50° SSE 05:25:49 21° E
NOSS 3-4 (C) 4.1 05:14:02 10° SW 05:21:24 50° SSE 05:25:52 21° E
STARLINK-1282 3.1 05:18:16 10° WNW 05:21:27 63° NNE 05:22:32 36° E
STARLINK-1313 3.0 05:19:18 10° WNW 05:22:29 66° NNE 05:23:32 37° E
Cosmos 1934 Rocket 4.1 05:16:23 10° NNW 05:22:46 83° W 05:29:18 10° S
STARLINK-62 3.3 05:19:41 10° WNW 05:22:53 55° NNE 05:23:57 35° ENE
STARLINK-1279 3.0 05:20:16 10° WNW 05:23:27 67° NNE 05:24:28 38° E
STARLINK-1298 3.1 05:20:57 10° WNW 05:24:08 64° NNE 05:25:07 39° E
STARLINK-1029 3.4 05:21:14 10° NW 05:24:20 47° NNE 05:25:14 35° ENE
STARLINK-34 3.3 05:21:37 10° WNW 05:24:50 56° NNE 05:25:50 37° ENE
STARLINK-1293 3.0 05:21:54 10° WNW 05:25:04 65° NNE 05:26:02 40° E
Cosmos 405 3.4 05:21:46 10° SSW 05:25:22 65° W 05:28:53 10° N
STARLINK-1301 3.3 05:22:33 10° WNW 05:26:06 69° NNE 05:27:22 36° E
STARLINK-55 2.9 05:23:13 10° WNW 05:26:30 78° N 05:27:31 41° E
Cosmos 158 Rocket 4.2 05:21:43 10° N 05:26:45 49° ENE 05:30:06 21° SE
Okean O Rocket 1.9 05:23:38 17° SSE 05:26:47 45° E 05:31:05 10° N
STARLINK-1255 3.0 05:23:41 10° WNW 05:26:51 65° NNE 05:27:44 42° E
H-2A R/B 3.0 05:25:18 24° SE 05:27:17 45° E 05:31:03 10° N
STARLINK-1299 4.3 05:23:45 10° NW 05:27:54 45° NNE 05:29:38 29° E
FENGYUN 3A 4.2 05:22:40 10° S 05:28:06 61° WSW 05:33:27 10° NNW
STARLINK-1306 4.3 05:24:22 10° NW 05:28:24 42° NNE 05:30:01 29° ENE
Cosmos 2278 Rocket 2.2 05:23:20 10° SSW 05:29:06 86° WNW 05:34:49 10° NNE
Cosmos 2333 Rocket 2.2 05:23:20 10° NNW 05:29:07 75° ENE 05:33:32 18° SE
STARLINK-1307 3.3 05:25:56 10° WNW 05:29:28 68° NNE 05:30:38 39° E
Cosmos 2112 Rocket 4.2 05:25:04 10° N 05:30:14 53° ENE 05:33:30 22° SE
Cosmos 1484 Rocket 4.4 05:26:42 10° S 05:30:17 34° WSW 05:33:47 10° NW
STARLINK-1281 4.3 05:27:38 10° NW 05:31:36 41° NNE 05:33:02 30° ENE
STARLINK-1290 3.3 05:28:38 10° WNW 05:32:12 69° NNE 05:33:15 42° E
Cosmos 1605 Rocket 3.9 05:27:20 10° N 05:33:34 82° E 05:39:48 10° SSE
SMAP 3.6 05:32:36 27° SE 05:34:26 38° E 05:38:49 10° NNE
STARLINK-1297 3.2 05:31:18 10° WNW 05:34:51 71° NNE 05:35:48 45° E
STARLINK-26 3.1 05:31:47 10° W 05:35:19 83° N 05:36:13 47° E
Sich 1 3.0 05:31:17 10° N 05:35:42 77° E 05:40:11 10° SSE
STARLINK-1310 4.2 05:32:34 10° NW 05:36:34 43° NNE 05:37:49 33° ENE
STARLINK-28 2.9 05:33:36 10° W 05:36:54 83° N 05:37:31 56° E
STARLINK-41 2.9 05:35:46 10° WNW 05:39:01 79° N 05:39:29 61° E
PSLV R/B 4.3 05:35:04 10° S 05:39:15 65° WSW 05:43:22 10° NNW
STARLINK-1319 4.2 05:37:29 10° NW 05:41:31 46° NNE 05:42:36 37° ENE
STARLINK-48 3.6 05:38:58 10° WNW 05:42:54 62° NNE 05:43:52 45° ENE
Cosmos 2322 3.9 05:37:22 10° NW 05:43:03 70° SW 05:47:31 17° SSE
Cosmos 1346 Rocket 3.5 05:39:13 10° NNW 05:43:09 56° WSW 05:47:10 10° S
Cosmos 2056 Rocket 3.7 05:39:41 10° SSW 05:45:08 77° WNW 05:50:25 10° NNE
Cosmos 2360 Rocket 3.2 05:40:48 10° WNW 05:46:15 44° SW 05:50:58 14° SSE
STARLINK-1277 4.1 05:42:24 10° NW 05:46:28 48° NNE 05:47:22 41° ENE
ATLAS 2AS CENTAUR R/B 2.7 05:41:34 10° SW 05:47:54 56° SSE 05:51:07 31° E
NOAA 6 4.0 05:44:47 10° SSE 05:50:02 87° ENE 05:55:13 10° NNW
STARLINK-1276 4.0 05:47:21 10° NW 05:51:26 50° NNE 05:52:10 45° ENE
STARLINK-1291 2.9 05:48:17 10° WNW 05:51:42 79° N 05:51:51 76° NE
MOS 1-B 4.5 05:45:55 10° SSE 05:51:51 80° WSW 05:57:42 10° NNW
SJ-7 4.4 05:49:33 19° SSE 05:52:30 82° WSW 05:56:32 10° NNW
STARLINK-1317 3.1 05:49:14 10° WNW 05:52:51 81° N 05:53:10 71° ENE
STARLINK-1264 3.0 05:50:10 10° WNW 05:53:36 79° N 05:53:41 78° NE
STARLINK-33 2.9 05:51:19 10° W 05:54:33 85° NW 05:54:33 85° NW
CZ-2C R/B 2.9 05:53:39 34° ENE 05:55:21 44° ESE 06:00:28 10° S
STARLINK-1267 3.0 05:52:05 10° WNW 05:55:32 80° N 05:55:35 80° NNE
Cosmos 1980 Rocket 4.3 05:52:17 10° WSW 05:55:45 16° SSW 05:59:01 11° SSE
STARLINK-1305 3.9 05:52:18 10° NW 05:56:25 53° NNE 05:56:57 49° NE
STARLINK-1272 3.0 05:53:59 10° WNW 05:57:24 81° N 05:57:24 81° N
STARLINK-64 3.4 05:55:17 10° WNW 05:58:51 61° NNE 05:58:51 61° NNE
STARLINK-1207 3.1 05:55:53 10° WNW 05:59:15 79° NNW 05:59:15 79° NNW
H-2A R/B 4.1 05:55:55 10° S 05:59:46 33° WSW 06:03:28 10° NW
Cosmos 1818 3.8 05:54:49 10° NNW 05:59:58 46° ENE 06:00:42 43° E
STARLINK-1278 3.8 05:55:53 10° WNW 06:00:09 60° NNE 06:00:43 54° ENE
Cosmos 332 Rocket 4.0 05:55:57 10° SSW 06:00:46 50° ESE 06:01:02 49° ESE
YAOGAN 6 4.3 06:03:03 23° NNE 06:03:03 23° NNE 06:04:38 10° N
ALOS 4.1 05:57:02 10° S 06:01:10 30° WSW 06:05:16 10° WNW
STARLINK-1266 3.1 05:57:53 10° WNW 06:01:09 77° NW 06:01:09 77° NW
STARLINK-1262 3.8 05:57:15 10° NW 06:01:23 55° NNE 06:01:44 53° NE
STARLINK-1280 3.8 05:57:43 10° WNW 06:02:00 61° NNE 06:02:29 56° NE
Cosmos 1666 Rocket 3.5 05:57:47 10° N 06:02:12 86° WSW 06:04:56 23° S
STARLINK-66 3.3 06:00:01 10° W 06:02:55 67° W 06:02:55 67° W
STARLINK-1284 3.2 05:59:51 10° W 06:03:04 74° NW 06:03:04 74° NW
Cosmos 1633 Rocket 3.0 05:59:50 10° N 06:04:19 85° E 06:06:32 30° SSE
STARLINK-1258 3.3 06:01:47 10° W 06:04:55 71° WNW 06:04:55 71° WNW
Meteor 1-18 Rocket 4.3 06:00:34 10° S 06:06:13 53° ESE 06:08:02 38° ENE
STARLINK-1300 3.8 06:02:11 10° WNW 06:06:19 58° NNE 06:06:29 57° NNE
SeaSat 1 3.6 06:07:27 28° SSE 06:07:27 28° SSE 06:10:53 10° SSW
STARLINK-1292 3.4 06:03:45 10° W 06:06:49 67° WNW 06:06:49 67° WNW
Meteor 1-25 Rocket 4.4 06:02:57 10° NNE 06:07:53 45° ENE 06:07:53 45° ENE
STARLINK-1274 3.5 06:05:46 10° W 06:08:46 64° WNW 06:08:46 64° WNW
STARLINK-1338 4.3 06:06:10 10° W 06:09:37 39° NNW 06:10:05 37° N
Cosmos 2219 Rocket 2.5 06:03:55 10° NW 06:09:37 67° SW 06:13:00 25° SSE
Cosmos 2100 Rocket 3.9 06:04:09 10° N 06:10:19 67° E 06:16:30 10° SSE
Cosmos 1680 Rocket 3.7 06:05:43 10° NNW 06:11:02 73° WSW 06:13:59 27° SSE
STARLINK-1289 3.6 06:07:49 10° W 06:10:44 61° WNW 06:10:44 61° WNW
STARLINK-1295 3.8 06:07:10 10° WNW 06:11:18 60° NNE 06:11:18 60° NNE
STARLINK-1303 3.7 06:09:47 10° W 06:12:38 58° WNW 06:12:38 58° WNW
STARLINK-75 4.0 06:11:06 10° W 06:13:34 47° W 06:13:34 47° W
STARLINK-1371 4.4 06:11:38 10° W 06:15:03 37° NNW 06:15:21 36° NNW
STARLINK-1312 3.8 06:11:47 10° W 06:14:34 55° WNW 06:14:34 55° WNW
Cosmos 1452 Rocket 3.4 06:10:15 10° SSW 06:15:36 78° ESE 06:17:29 41° NE
STARLINK-1287 3.8 06:12:05 10° WNW 06:16:03 62° N 06:16:03 62° N
STARLINK-1341 4.5 06:14:23 10° W 06:17:48 36° NNW 06:18:02 36° NNW
Cosmos 1420 Rocket 4.2 06:13:34 10° SSW 06:18:58 75° WNW 06:24:07 11° NNE
STARLINK-58 4.4 06:17:49 10° W 06:19:58 38° WNW 06:19:58 38° WNW
CZ-4C R/B 3.3 06:17:25 10° WSW 06:23:32 33° S 06:24:38 31° SSE
Envisat 2.9 06:21:19 35° SSE 06:23:37 87° ENE 06:28:46 10° NNW
Cosmos 1980 3.6 06:18:53 10° NNW 06:24:35 76° ENE 06:25:38 59° SE
STARLINK-1302 4.0 06:22:01 10° WNW 06:25:38 58° NNW 06:25:38 58° NNW
Cosmos 2061 Rocket 3.9 06:20:58 10° N 06:27:06 59° E 06:28:12 52° SE
Cosmos 1238 Rocket 3.2 06:23:04 10° NNW 06:27:18 61° WSW 06:27:18 61° WSW
Cosmos 2322 Rocket 4.2 06:23:03 10° W 06:27:25 22° SSW 06:30:39 14° S
Feng Yun 1-1 Rocket 4.2 06:27:59 60° NE 06:27:59 60° NE 06:32:58 10° N
Cosmos 2297 3.6 06:23:28 10° SSW 06:29:12 86° ESE 06:30:33 55° NE
MOS 1 Rocket 3.4 06:31:08 64° S 06:31:08 64° S 06:35:22 10° SSW
STARLINK-1273 4.2 06:27:00 10° WNW 06:30:25 55° NW 06:30:25 55° NW
STARLINK-43 4.4 06:27:51 10° W 06:30:36 45° W 06:30:36 45° W
STARLINK-80 4.3 06:27:54 10° W 06:30:50 49° W 06:30:50 49° W
Meteor 1-20 Rocket 4.2 06:26:15 10° N 06:32:01 69° E 06:32:29 66° ESE
NOSS 0 Rocket 3.9 06:27:06 10° NNW 06:33:23 88° WSW 06:35:22 47° SSE
STARLINK-1288 4.4 06:31:56 10° WNW 06:35:11 50° NW 06:35:11 50° NW
USA 234 3.3 06:34:22 50° SE 06:36:11 72° SSW 06:42:46 10° W
CZ-2C R/B 3.8 06:36:46 75° SSW 06:36:46 75° SSW 06:41:14 10° SSW
Cosmos 2016 Rocket 3.9 06:31:22 10° N 06:37:37 69° E 06:39:15 50° SE
Cosmos 2173 Rocket 3.9 06:33:12 10° N 06:39:30 86° W 06:45:48 10° S
COSMOS 2428 3.5 06:35:17 10° WNW 06:40:52 49° SW 06:43:22 30° S
Cosmos 2242 Rocket 4.0 06:37:53 10° SSW 06:42:02 63° WSW 06:42:02 63° WSW
Cosmos 1816 Rocket 4.4 06:36:23 10° S 06:42:51 81° E 06:45:21 40° NNE
COSMOS 2455 3.5 06:37:08 10° SW 06:42:03 41° SSE 06:42:03 41° SSE
Lacrosse 5 rocket 3.9 06:39:40 10° NNW 06:40:19 13° N 06:40:19 13° N
DMSP B5D2-2 4.1 06:42:43 58° N 06:43:49 82° WNW 06:49:09 10° SSW
CZ-4B R/B 4.0 06:41:08 13° S 06:45:48 50° WSW 06:51:06 10° NW
ATLAS 5 CENTAUR R/B 2.5 06:39:17 10° NNW 06:46:20 67° NE 06:46:25 67° NE
Cosmos 1459 Rocket 4.1 06:40:23 10° NNW 06:46:40 79° W 06:53:08 10° S
Cosmos 371 Rocket 3.7 06:42:15 10° SSW 06:47:05 60° WNW 06:47:37 56° NW
CORIOLIS 4.3 06:47:23 44° S 06:49:12 74° WSW 06:54:40 10° NNW
Cosmos 1943 Rocket 2.7 06:44:45 10° SSW 06:48:58 48° S 06:48:58 48° S
Cosmos 1470 Rocket 4.5 06:46:59 10° NNW 06:50:24 46° NW 06:50:24 46° NW
Gblst 52 Del rocket 4.3 06:45:18 10° W 06:51:51 78° N 06:51:55 78° N
Cosmos 2369 Rocket 3.0 06:46:30 10° SSW 06:50:30 40° S 06:50:30 40° S
Cosmos 2237 Rocket 2.2 06:47:00 10° NW 06:52:42 78° WSW 06:52:55 77° SSW
NOAA 12 4.3 06:53:40 59° SSW 06:54:31 70° WSW 06:59:47 10° NNW
ATLAS CENTAUR R/B 3.0 06:51:59 10° SW 06:54:46 35° SSW 06:54:46 35° SSW
SL-16 R/B 4.3 06:53:51 10° WSW 06:57:26 16° SSW 06:59:15 14° S
Okean O Rocket 3.5 07:01:05 21° SSW 07:02:59 28° WSW 07:06:48 10° WNW
SL-16 R/B 4.0 07:02:39 10° NNW 07:04:24 20° N 07:04:24 20° N
BREEZE M DEB (TANK) 4.5 06:49:19 10° WSW 07:11:30 57° NNW 07:13:13 47° N
SMAP 4.5 07:11:04 34° SW 07:11:46 36° WSW 07:16:04 10° NW
NOSS 3-4 (A) 3.7 07:05:26 10° SW 07:12:44 71° NW 07:13:16 68° NNW
NOSS 3-4 (C) 3.7 07:05:32 10° SW 07:12:50 71° NW 07:13:20 69° NNW
Cosmos 1802 Rocket 4.4 07:07:02 10° NNW 07:13:29 64° WSW 07:19:57 10° S
Cosmos 2333 Rocket 3.7 07:08:50 10° W 07:13:57 31° SW 07:15:33 27° S
NOSS 3-3 (A) 4.4 07:17:01 10° NW 07:25:07 86° WSW 07:25:07 86° WSW
NOSS 3-3 (C) 4.4 07:17:07 10° NW 07:25:10 86° W 07:25:10 86° W
Cosmos 2360 Rocket 4.3 07:28:03 10° WSW 07:31:47 17° SSW 07:32:44 17° S
CZ-2C R/B 3.9 07:35:11 37° WNW 07:35:44 38° W 07:40:48 10° SSW
ATLAS 2AS CENTAUR R/B 3.2 07:32:30 10° SW 07:38:35 53° WNW 07:38:35 53° WNW
Cosmos 2219 Rocket 4.2 07:50:16 10° W 07:54:41 22° SSW 07:54:44 22° SSW
CZ-4C R/B 4.2 08:07:08 10° SW 08:09:49 24° SW 08:09:49 24° SW
USA 234 4.5 08:21:43 37° WSW 08:21:43 37° WSW 08:25:32 10° WSW
ATLAS 5 CENTAUR R/B 4.3 08:24:44 10° WNW 08:27:59 27° W 08:27:59 27° W
